Flag Weather past 2 weeks in Fürstenfeld, Styria, Austria

Now
47 °F

Cool.


Feels Like: 47 °F
Forecast: 34 / 46 °F
Wind: 1 mph from South

Location: Murska Sobota

Current Time: Nov 21, 2014 at 5:41:50 PM

Latest Report: Nov 21, 2014 at 4:00 PM


Visibility: N/A

Pressure: 30.29 "Hg

Humidity: 77%

Dew point: 40 °F

Location of FürstenfeldLocation

Historic Weather in Fürstenfeld — Graph

°F

Fürstenfeld temperature yesterday

Maximum temperature yesterday: 55 °F (at 3:00 PM)
Minimum temperature yesterday: 37 °F (at 6:00 AM)
Average temperature yesterday: 44 °F

Past Weeks' High & Low Weather Summary

 TemperatureHumidityPressure
High66 °F (Nov 11, 3:00 PM)100% (Nov 7, 8:00 AM)30.33 "Hg (Nov 7, 8:00 AM)
Low37 °F (Nov 20, 6:00 AM)60% (Nov 16, 1:00 PM)29.68 "Hg (Nov 18, 6:00 AM)
Average51 °F91%29.95 "Hg
* Reported Nov 6 4:00 PM — Nov 21 4:00 PM, Fürstenfeld, Weather by CustomWeather, © 2014

Note: Actual official high and low records may vary slightly from our data, if they occured in-between our weather recording intervals... More about our weather records

Advertising

Fürstenfeld weather history for previous 24 hours

 ConditionsComfort  
Time TempWeatherWind HumidityBarometerVisibility
4:00 PM
Nov 21
47 °FCool.1 mph77%30.29 "HgN/A
3:00 PM48 °FCool.2 mph76%30.28 "HgN/A
2:00 PM48 °FFog.2 mph74%30.29 "Hg5 mi
1:00 PM48 °FFog.1 mph73%30.30 "Hg5 mi
12:00 PM49 °FCool.1 mph76%30.31 "HgN/A
11:00 AM47 °FCool.1 mph79%30.33 "HgN/A
10:00 AM46 °FCool.1 mph87%30.33 "HgN/A
9:00 AM44 °FQuite cool.1 mph93%30.32 "HgN/A
8:00 AM43 °FFog.1 mph95%30.32 "Hg2 mi
7:00 AM42 °FFog.1 mph96%30.31 "Hg4 mi
6:00 AM42 °FQuite cool.No wind97%30.31 "HgN/A
5:00 AM42 °FQuite cool.No wind96%30.31 "HgN/A
4:00 AM43 °FQuite cool.No wind94%30.30 "HgN/A
3:00 AM43 °FQuite cool.1 mph94%30.30 "HgN/A
2:00 AM43 °FQuite cool.1 mph94%30.30 "HgN/A
1:00 AM42 °FQuite cool.No wind93%30.30 "HgN/A
12:00 AM42 °FQuite cool.No wind97%30.32 "HgN/A
11:00 PM
Nov 20
41 °FQuite cool.1 mph97%30.32 "HgN/A
10:00 PM40 °FChilly.1 mph97%30.33 "HgN/A
9:00 PM40 °FChilly.No wind93%30.31 "HgN/A
8:00 PM41 °FQuite cool.1 mph91%30.30 "HgN/A
7:00 PM44 °FPassing clouds.1 mph84%30.29 "Hg31 mi
6:00 PM46 °FCool.2 mph82%30.29 "HgN/A
5:00 PM48 °FCool.2 mph79%30.28 "HgN/A
Weather by CustomWeather, © 2014

See weather overviewHow to use our weather pages